StationID,Date,MaxTemp,MinTemp,Precipitation,Snowfall,SnowDepth
"USC00500288","1957-03-01",,,0.00,0.00,0.00
"USC00500288","1957-03-02",46.94,30.02,0.00,0.00,0.00
"USC00500288","1957-03-03",39.02,17.96,0.00,0.00,0.00
"USC00500288","1957-03-04",42.98,21.92,0.00,0.00,0.00
"USC00500288","1957-03-05",42.08,-0.04,0.00,0.00,0.00
"USC00500288","1957-03-06",41.00,8.06,0.00,0.00,0.00
"USC00500288","1957-03-07",39.02,5.00,0.00,0.00,0.00
"USC00500288","1957-03-08",35.06,21.02,0.00,0.00,0.00
"USC00500288","1957-03-09",42.08,8.96,0.00,0.00,0.00
"USC00500288","1957-03-10",42.98,17.06,0.00,0.00,0.00
"USC00500288","1957-03-11",41.00,6.08,0.00,0.00,0.00
"USC00500288","1957-03-12",35.96,21.02,0.00,0.00,
"USC00500288","1957-03-13",35.96,21.92,0.00,0.00,
"USC00500288","1957-03-14",35.06,24.08,0.00,0.00,
"USC00500288","1957-03-15",35.06,26.06,23.00,41.00,
"USC00500288","1957-03-16",41.00,24.08,0.00,0.00,
"USC00500288","1957-03-17",39.92,28.04,0.00,0.00,
"USC00500288","1957-03-18",41.00,30.92,0.00,0.00,
"USC00500288","1957-03-19",37.04,28.94,0.00,0.00,
"USC00500288","1957-03-20",37.94,15.08,0.00,0.00,
"USC00500288","1957-03-21",35.06,12.92,0.00,0.00,
"USC00500288","1957-03-22",37.94,10.94,0.00,0.00,
"USC00500288","1957-03-23",35.96,10.04,0.00,0.00,
"USC00500288","1957-03-24",33.98,-0.94,0.00,0.00,
"USC00500288","1957-03-25",32.00,1.94,0.00,0.00,
"USC00500288","1957-03-26",28.94,5.00,0.00,3.00,
"USC00500288","1957-03-27",33.98,21.02,0.00,0.00,
"USC00500288","1957-03-28",46.04,26.96,0.00,0.00,
"USC00500288","1957-03-29",42.98,,0.00,0.00,
"USC00500288","1957-03-30",46.04,30.92,0.00,0.00,
"USC00500288","1957-03-31",46.04,19.94,0.00,0.00,
"USC00500288","1957-04-01",51.98,17.06,0.00,0.00,0.00
"USC00500288","1957-04-02",46.04,19.04,0.00,0.00,0.00
"USC00500288","1957-04-03",42.98,14.00,0.00,0.00,0.00
"USC00500288","1957-04-04",37.94,8.96,0.00,0.00,0.00
"USC00500288","1957-04-05",39.02,15.98,0.00,0.00,0.00
"USC00500288","1957-04-06",39.92,28.94,0.00,0.00,0.00
"USC00500288","1957-04-07",46.04,30.02,3.00,3.00,0.00
"USC00500288","1957-04-08",42.98,15.08,0.00,0.00,0.00
"USC00500288","1957-04-09",44.96,17.06,0.00,0.00,0.00
"USC00500288","1957-04-10",46.04,15.98,0.00,0.00,0.00
"USC00500288","1957-04-11",46.04,21.02,0.00,0.00,0.00
"USC00500288","1957-04-12",50.00,21.02,0.00,0.00,0.00
"USC00500288","1957-04-13",46.04,19.94,0.00,0.00,0.00
"USC00500288","1957-04-14",44.96,21.02,0.00,0.00,0.00
"USC00500288","1957-04-15",46.94,30.02,0.00,0.00,0.00
"USC00500288","1957-04-16",44.96,26.96,0.00,0.00,0.00
"USC00500288","1957-04-17",48.02,30.02,0.00,0.00,0.00
"USC00500288","1957-04-18",48.02,30.02,0.00,0.00,0.00
"USC00500288","1957-04-19",48.02,26.96,0.00,0.00,0.00
"USC00500288","1957-04-20",46.94,24.08,0.00,0.00,0.00
"USC00500288","1957-04-21",51.98,28.04,0.00,0.00,0.00
"USC00500288","1957-04-22",53.96,23.00,0.00,0.00,0.00
"USC00500288","1957-04-23",53.96,24.98,0.00,0.00,0.00
"USC00500288","1957-04-24",48.92,30.92,0.00,0.00,0.00
"USC00500288","1957-04-25",48.02,30.92,0.00,0.00,0.00
"USC00500288","1957-04-26",48.02,30.02,3.00,0.00,0.00
"USC00500288","1957-04-27",48.02,33.98,0.00,0.00,0.00
"USC00500288","1957-04-28",48.92,21.92,0.00,0.00,0.00
"USC00500288","1957-04-29",51.08,21.92,0.00,0.00,0.00
"USC00500288","1957-04-30",51.98,19.04,0.00,0.00,0.00
"USC00500288","1957-05-01",53.06,17.96,0.00,0.00,0.00
"USC00500288","1957-05-02",53.96,19.94,0.00,0.00,0.00
"USC00500288","1957-05-03",55.04,30.02,0.00,0.00,0.00
"USC00500288","1957-05-04",57.92,26.06,0.00,0.00,0.00
"USC00500288","1957-05-05",53.96,35.96,0.00,0.00,0.00
"USC00500288","1957-05-06",50.00,35.96,0.00,0.00,0.00
"USC00500288","1957-05-07",60.98,26.96,0.00,0.00,0.00
"USC00500288","1957-05-08",71.96,28.04,0.00,0.00,0.00
"USC00500288","1957-05-09",64.94,30.02,0.00,0.00,0.00
"USC00500288","1957-05-10",60.98,26.96,0.00,0.00,0.00
"USC00500288","1957-05-11",69.98,26.96,0.00,0.00,0.00
"USC00500288","1957-05-12",66.02,35.96,0.00,0.00,0.00
"USC00500288","1957-05-13",60.08,24.98,0.00,0.00,0.00
"USC00500288","1957-05-14",53.96,32.00,0.00,0.00,0.00
"USC00500288","1957-05-15",59.00,37.94,0.00,0.00,0.00
"USC00500288","1957-05-16",55.94,33.98,3.00,0.00,0.00
"USC00500288","1957-05-17",64.94,39.02,0.00,0.00,0.00
"USC00500288","1957-05-18",66.92,30.02,0.00,0.00,0.00
"USC00500288","1957-05-19",55.04,44.96,3.00,0.00,0.00
"USC00500288","1957-05-20",64.04,35.96,0.00,0.00,0.00
"USC00500288","1957-05-21",57.92,39.92,0.00,0.00,0.00
"USC00500288","1957-05-22",60.08,33.98,0.00,0.00,0.00
"USC00500288","1957-05-23",53.96,35.96,0.00,0.00,0.00
"USC00500288","1957-05-24",64.94,,0.00,0.00,0.00
"USC00500288","1957-05-25",68.00,,0.00,0.00,0.00
"USC00500288","1957-05-26",64.04,39.92,0.00,0.00,0.00
"USC00500288","1957-05-27",64.04,39.92,0.00,0.00,0.00
"USC00500288","1957-05-28",64.94,30.02,0.00,0.00,0.00
"USC00500288","1957-05-29",66.92,42.98,0.00,0.00,0.00
"USC00500288","1957-05-30",64.94,32.00,0.00,0.00,0.00
"USC00500288","1957-05-31",62.06,39.02,0.00,0.00,0.00
"USC00500288","1957-06-01",66.02,42.98,0.00,0.00,0.00
"USC00500288","1957-06-02",71.06,37.04,0.00,0.00,0.00
"USC00500288","1957-06-03",77.00,39.92,0.00,0.00,0.00
"USC00500288","1957-06-04",80.96,39.02,0.00,0.00,0.00
"USC00500288","1957-06-05",69.08,39.02,0.00,0.00,0.00
"USC00500288","1957-06-06",71.96,35.06,0.00,0.00,0.00
"USC00500288","1957-06-07",75.92,39.92,0.00,0.00,0.00
"USC00500288","1957-06-08",,35.06,0.00,0.00,0.00
"USC00500288","1957-06-09",73.94,,0.00,0.00,0.00
"USC00500288","1957-06-10",71.96,42.08,0.00,0.00,0.00
"USC00500288","1957-06-11",,,0.00,0.00,0.00
"USC00500288","1957-06-12",64.94,37.94,0.00,0.00,0.00
"USC00500288","1957-06-13",,,0.00,0.00,0.00
"USC00500288","1957-06-14",,,0.00,0.00,0.00
"USC00500288","1957-06-15",62.06,46.94,0.00,0.00,0.00
"USC00500288","1957-06-16",69.08,50.00,0.00,0.00,0.00
"USC00500288","1957-06-17",75.02,50.00,0.00,0.00,0.00
"USC00500288","1957-06-18",69.08,50.00,0.00,0.00,0.00
"USC00500288","1957-06-19",69.08,39.92,0.00,0.00,0.00
"USC00500288","1957-06-20",62.06,50.00,76.00,0.00,0.00
"USC00500288","1957-06-21",60.08,48.92,0.00,0.00,0.00
"USC00500288","1957-06-22",60.98,48.92,132.00,0.00,0.00
"USC00500288","1957-06-23",68.00,41.00,0.00,0.00,0.00
"USC00500288","1957-06-24",69.08,42.08,0.00,0.00,0.00
"USC00500288","1957-06-25",69.98,33.98,0.00,0.00,0.00
"USC00500288","1957-06-26",75.92,35.96,0.00,0.00,0.00
"USC00500288","1957-06-27",77.00,39.92,3.00,0.00,0.00
"USC00500288","1957-06-28",77.00,39.92,0.00,0.00,0.00
"USC00500288","1957-06-29",75.92,42.08,0.00,0.00,0.00
"USC00500288","1957-06-30",75.92,46.94,13.00,0.00,0.00
"USC00500288","1957-07-01",71.06,44.96,0.00,0.00,0.00
"USC00500288","1957-07-02",66.02,41.00,15.00,0.00,0.00
"USC00500288","1957-07-03",62.06,42.08,127.00,0.00,0.00
"USC00500288","1957-07-04",71.96,42.98,20.00,0.00,0.00
"USC00500288","1957-07-05",57.02,48.02,71.00,0.00,0.00
"USC00500288","1957-07-06",66.02,48.92,0.00,0.00,0.00
"USC00500288","1957-07-07",66.02,51.98,0.00,0.00,0.00
"USC00500288","1957-07-08",68.00,53.06,0.00,0.00,0.00
"USC00500288","1957-07-09",73.94,41.00,0.00,0.00,0.00
"USC00500288","1957-07-10",73.94,55.04,0.00,0.00,0.00
"USC00500288","1957-07-11",69.08,42.98,0.00,0.00,0.00
"USC00500288","1957-07-12",69.98,44.96,0.00,0.00,0.00
"USC00500288","1957-07-13",73.04,50.00,0.00,0.00,0.00
"USC00500288","1957-07-14",73.94,46.94,0.00,0.00,0.00
"USC00500288","1957-07-15",71.06,50.00,0.00,0.00,0.00
"USC00500288","1957-07-16",69.08,42.98,0.00,0.00,0.00
"USC00500288","1957-07-17",62.96,53.06,0.00,0.00,0.00
"USC00500288","1957-07-18",57.92,50.00,239.00,0.00,0.00
"USC00500288","1957-07-19",60.98,46.04,94.00,0.00,0.00
"USC00500288","1957-07-20",68.00,46.04,0.00,0.00,0.00
"USC00500288","1957-07-21",69.08,39.92,0.00,0.00,0.00
"USC00500288","1957-07-22",62.06,50.00,23.00,0.00,0.00
"USC00500288","1957-07-23",64.04,48.02,0.00,0.00,0.00
"USC00500288","1957-07-24",69.98,46.94,0.00,0.00,0.00
"USC00500288","1957-07-25",69.08,51.08,36.00,0.00,0.00
"USC00500288","1957-07-26",66.92,48.02,130.00,0.00,0.00
"USC00500288","1957-07-27",66.02,33.08,0.00,0.00,0.00
"USC00500288","1957-07-28",71.06,35.96,0.00,0.00,0.00
"USC00500288","1957-07-29",73.94,39.02,0.00,0.00,0.00
"USC00500288","1957-07-30",75.92,41.00,0.00,0.00,0.00
"USC00500288","1957-07-31",75.02,39.92,0.00,0.00,0.00
"USC00500288","1957-08-01",71.06,39.02,0.00,0.00,0.00
"USC00500288","1957-08-02",,,0.00,0.00,0.00
"USC00500288","1957-08-03",68.00,35.06,0.00,0.00,0.00
"USC00500288","1957-08-04",71.06,41.00,0.00,0.00,0.00
"USC00500288","1957-08-05",66.02,51.98,5.00,0.00,0.00
"USC00500288","1957-08-06",68.00,51.08,81.00,0.00,0.00
"USC00500288","1957-08-07",73.94,39.02,0.00,0.00,0.00
"USC00500288","1957-08-08",78.98,39.92,0.00,0.00,0.00
"USC00500288","1957-08-09",75.92,42.98,0.00,0.00,0.00
"USC00500288","1957-08-10",73.94,39.92,0.00,0.00,0.00
"USC00500288","1957-08-11",75.02,44.06,0.00,0.00,0.00
"USC00500288","1957-08-12",71.96,42.98,0.00,0.00,0.00
"USC00500288","1957-08-13",69.98,48.92,0.00,0.00,0.00
"USC00500288","1957-08-14",71.06,48.92,0.00,0.00,0.00
"USC00500288","1957-08-15",75.92,51.08,0.00,0.00,0.00
"USC00500288","1957-08-16",71.96,42.08,0.00,0.00,0.00
"USC00500288","1957-08-17",66.02,39.02,0.00,0.00,0.00
"USC00500288","1957-08-18",64.94,50.00,130.00,0.00,0.00
"USC00500288","1957-08-19",62.96,48.02,18.00,0.00,0.00
"USC00500288","1957-08-20",55.94,42.98,64.00,0.00,0.00
"USC00500288","1957-08-21",62.96,46.04,8.00,0.00,0.00
"USC00500288","1957-08-22",66.02,46.94,5.00,0.00,0.00
"USC00500288","1957-08-23",66.02,48.02,48.00,0.00,0.00
"USC00500288","1957-08-24",71.06,37.04,0.00,0.00,0.00
"USC00500288","1957-08-25",71.06,35.96,0.00,0.00,0.00
"USC00500288","1957-08-26",64.94,50.00,13.00,0.00,0.00
"USC00500288","1957-08-27",66.92,50.00,188.00,0.00,0.00
"USC00500288","1957-08-28",66.02,48.92,89.00,0.00,0.00
"USC00500288","1957-08-29",60.08,44.96,3.00,0.00,0.00
"USC00500288","1957-08-30",66.02,42.08,8.00,0.00,0.00
"USC00500288","1957-08-31",60.98,39.92,33.00,0.00,0.00
"USC00500288","1957-09-01",62.96,48.02,0.00,0.00,0.00
"USC00500288","1957-09-02",64.94,46.94,3.00,0.00,0.00
"USC00500288","1957-09-03",66.02,48.92,0.00,0.00,0.00
"USC00500288","1957-09-04",60.08,42.08,0.00,0.00,0.00
"USC00500288","1957-09-05",73.04,42.98,5.00,0.00,0.00
"USC00500288","1957-09-06",64.04,48.02,13.00,0.00,0.00
"USC00500288","1957-09-07",64.04,42.98,0.00,0.00,0.00
"USC00500288","1957-09-08",60.08,46.04,23.00,0.00,0.00
"USC00500288","1957-09-09",59.00,48.92,20.00,0.00,0.00
"USC00500288","1957-09-10",62.06,46.04,3.00,0.00,0.00
"USC00500288","1957-09-11",57.92,42.08,107.00,0.00,0.00
"USC00500288","1957-09-12",68.00,48.92,,0.00,0.00
"USC00500288","1957-09-13",60.98,44.96,25.00,0.00,0.00
"USC00500288","1957-09-14",62.96,42.08,0.00,0.00,0.00
"USC00500288","1957-09-15",59.00,42.08,0.00,0.00,0.00
"USC00500288","1957-09-16",59.00,30.92,0.00,0.00,0.00
"USC00500288","1957-09-17",60.98,32.00,,0.00,0.00
"USC00500288","1957-09-18",,28.04,,0.00,0.00
"USC00500288","1957-09-19",,,,0.00,0.00
"USC00500288","1957-09-20",48.02,19.04,0.00,0.00,0.00
"USC00500288","1957-09-21",46.94,37.04,,0.00,0.00
"USC00500288","1957-09-22",50.00,39.92,89.00,0.00,0.00
"USC00500288","1957-09-23",46.04,26.96,15.00,0.00,0.00
"USC00500288","1957-09-24",48.02,41.00,140.00,0.00,0.00
"USC00500288","1957-09-25",48.02,39.92,51.00,0.00,0.00
"USC00500288","1957-09-26",51.08,42.08,43.00,0.00,0.00
"USC00500288","1957-09-27",46.94,33.98,13.00,0.00,0.00
"USC00500288","1957-09-28",46.04,33.08,107.00,0.00,0.00
"USC00500288","1957-09-29",44.06,30.92,51.00,0.00,0.00
"USC00500288","1957-09-30",39.02,15.98,0.00,0.00,0.00
"USC00500288","1957-10-01",42.98,10.94,0.00,0.00,0.00
"USC00500288","1957-10-02",46.04,15.08,0.00,0.00,0.00
"USC00500288","1957-10-03",48.92,15.08,0.00,0.00,0.00
"USC00500288","1957-10-04",48.02,15.98,0.00,0.00,0.00
"USC00500288","1957-10-05",48.92,17.06,0.00,0.00,0.00
"USC00500288","1957-10-06",51.08,14.00,0.00,0.00,0.00
"USC00500288","1957-10-07",,,0.00,0.00,0.00
"USC00500288","1957-10-08",51.08,19.04,0.00,0.00,0.00
"USC00500288","1957-10-09",51.98,28.04,0.00,0.00,0.00
"USC00500288","1957-10-10",46.94,30.92,0.00,0.00,0.00
"USC00500288","1957-10-11",44.06,30.92,94.00,8.00,0.00
"USC00500288","1957-10-12",42.98,28.04,36.00,25.00,0.00
"USC00500288","1957-10-13",37.94,14.00,0.00,0.00,0.00
"USC00500288","1957-10-14",33.08,15.08,10.00,0.00,0.00
"USC00500288","1957-10-15",39.02,26.06,23.00,0.00,0.00
"USC00500288","1957-10-16",48.02,33.08,0.00,0.00,0.00
"USC00500288","1957-10-17",46.94,28.94,3.00,0.00,0.00
"USC00500288","1957-10-18",48.92,35.96,0.00,0.00,0.00
"USC00500288","1957-10-19",57.02,33.08,0.00,0.00,0.00
"USC00500288","1957-10-20",42.08,26.96,0.00,0.00,0.00
"USC00500288","1957-10-21",46.04,33.98,124.00,0.00,0.00
"USC00500288","1957-10-22",53.96,33.08,0.00,0.00,0.00
"USC00500288","1957-10-23",50.00,24.08,0.00,0.00,0.00
"USC00500288","1957-10-24",48.92,28.04,0.00,0.00,0.00
"USC00500288","1957-10-25",44.06,19.04,0.00,0.00,0.00
"USC00500288","1957-10-26",41.00,19.94,0.00,0.00,0.00
"USC00500288","1957-10-27",42.98,28.04,0.00,0.00,0.00
"USC00500288","1957-10-28",39.02,30.92,0.00,0.00,0.00
"USC00500288","1957-10-29",46.04,33.98,0.00,0.00,0.00
"USC00500288","1957-10-30",46.94,30.92,0.00,0.00,0.00
"USC00500288","1957-10-31",44.96,26.06,0.00,0.00,0.00
"USC00500288","1957-11-01",46.04,30.02,0.00,0.00,0.00
"USC00500288","1957-11-02",42.98,33.98,0.00,0.00,0.00
"USC00500288","1957-11-03",41.00,30.92,0.00,0.00,0.00
"USC00500288","1957-11-04",46.04,33.08,20.00,0.00,0.00
"USC00500288","1957-11-05",44.06,28.04,0.00,0.00,0.00
"USC00500288","1957-11-06",48.02,28.94,0.00,0.00,0.00
"USC00500288","1957-11-07",37.94,28.04,0.00,0.00,0.00
"USC00500288","1957-11-08",33.08,28.04,38.00,15.00,0.00
"USC00500288","1957-11-09",33.08,24.08,3.00,3.00,0.00
"USC00500288","1957-11-10",35.96,26.96,20.00,0.00,0.00
"USC00500288","1957-11-11",33.98,26.96,0.00,0.00,0.00
"USC00500288","1957-11-12",37.04,28.04,0.00,0.00,0.00
"USC00500288","1957-11-13",33.08,21.02,0.00,0.00,0.00
"USC00500288","1957-11-14",33.98,21.02,61.00,117.00,127.00
"USC00500288","1957-11-15",33.98,19.04,0.00,0.00,
"USC00500288","1957-11-16",33.98,24.08,0.00,0.00,
"USC00500288","1957-11-17",41.00,28.94,56.00,0.00,25.00
"USC00500288","1957-11-18",42.08,19.04,0.00,0.00,0.00
"USC00500288","1957-11-19",42.98,26.96,0.00,0.00,0.00
"USC00500288","1957-11-20",42.98,26.96,48.00,0.00,0.00
"USC00500288","1957-11-21",35.96,17.96,13.00,0.00,0.00
"USC00500288","1957-11-22",33.08,19.94,0.00,0.00,0.00
"USC00500288","1957-11-23",24.08,10.94,0.00,0.00,0.00
"USC00500288","1957-11-24",24.08,6.08,0.00,0.00,0.00
"USC00500288","1957-11-25",28.04,8.96,0.00,0.00,0.00
"USC00500288","1957-11-26",35.06,14.00,0.00,0.00,0.00
"USC00500288","1957-11-27",33.08,28.04,36.00,41.00,25.00
"USC00500288","1957-11-28",28.04,5.00,0.00,0.00,25.00
"USC00500288","1957-11-29",32.00,10.04,0.00,0.00,
"USC00500288","1957-11-30",32.00,12.02,0.00,0.00,
"USC00500288","1957-12-01",35.06,15.98,0.00,0.00,
"USC00500288","1957-12-02",41.00,21.92,0.00,0.00,
"USC00500288","1957-12-03",32.00,19.04,28.00,18.00,51.00
"USC00500288","1957-12-04",24.08,8.96,0.00,0.00,51.00
"USC00500288","1957-12-05",26.06,10.04,0.00,0.00,51.00
"USC00500288","1957-12-06",21.92,10.94,0.00,0.00,51.00
"USC00500288","1957-12-07",30.92,19.04,28.00,41.00,76.00
"USC00500288","1957-12-08",26.96,-7.96,0.00,0.00,76.00
"USC00500288","1957-12-09",41.00,-5.98,0.00,0.00,76.00
"USC00500288","1957-12-10",37.04,17.06,0.00,0.00,51.00
"USC00500288","1957-12-11",28.94,1.94,3.00,5.00,
"USC00500288","1957-12-12",21.02,3.92,0.00,3.00,51.00
"USC00500288","1957-12-13",24.08,6.98,25.00,20.00,76.00
"USC00500288","1957-12-14",19.04,-0.04,0.00,0.00,
"USC00500288","1957-12-15",10.04,-14.08,0.00,0.00,76.00
"USC00500288","1957-12-16",1.94,-20.02,0.00,0.00,76.00
"USC00500288","1957-12-17",-2.92,-20.02,0.00,0.00,76.00
"USC00500288","1957-12-18",-2.92,-22.00,0.00,0.00,51.00
"USC00500288","1957-12-19",-4.00,-25.06,0.00,0.00,51.00
"USC00500288","1957-12-20",-5.08,-29.92,0.00,0.00,51.00
"USC00500288","1957-12-21",6.98,-11.92,0.00,0.00,51.00
"USC00500288","1958-01-15",,,,,330.00
"USC00500288","1958-01-16",24.98,15.08,3.00,3.00,330.00
"USC00500288","1958-01-17",28.94,15.08,3.00,3.00,330.00
"USC00500288","1958-01-18",42.98,28.94,18.00,0.00,254.00
"USC00500288","1958-01-19",33.98,24.08,3.00,3.00,254.00
"USC00500288","1958-01-20",26.96,12.92,0.00,0.00,254.00
"USC00500288","1958-01-21",19.04,3.02,0.00,0.00,
"USC00500288","1958-01-22",24.08,1.94,0.00,0.00,
"USC00500288","1958-01-23",26.06,6.08,0.00,0.00,
"USC00500288","1958-01-24",21.92,1.04,0.00,0.00,
"USC00500288","1958-01-25",24.08,10.04,0.00,0.00,
"USC00500288","1958-01-26",24.98,6.98,0.00,0.00,
"USC00500288","1958-01-27",21.92,-2.92,0.00,0.00,
"USC00500288","1958-01-28",28.04,-9.94,0.00,0.00,
"USC00500288","1958-01-29",26.96,-2.92,0.00,0.00,
"USC00500288","1958-01-30",28.04,-7.06,0.00,0.00,
"USC00500288","1958-01-31",26.06,-7.06,0.00,0.00,
"USC00500288","1958-02-01",17.96,-7.06,0.00,0.00,330.00
"USC00500288","1958-02-02",17.96,-9.94,0.00,0.00,330.00
"USC00500288","1958-02-03",24.08,-7.06,0.00,0.00,330.00
"USC00500288","1958-02-04",26.06,-0.94,0.00,0.00,330.00
"USC00500288","1958-02-05",28.94,-4.00,0.00,0.00,330.00
"USC00500288","1958-02-06",32.00,-5.98,0.00,0.00,330.00
"USC00500288","1958-02-07",26.06,-11.92,0.00,0.00,330.00
"USC00500288","1958-02-08",26.06,-9.04,0.00,0.00,330.00
"USC00500288","1958-02-09",23.00,-5.98,0.00,0.00,330.00
"USC00500288","1958-02-10",23.00,-0.94,0.00,0.00,330.00
"USC00500288","1958-02-11",24.08,10.04,0.00,0.00,330.00
"USC00500288","1958-02-12",23.00,10.04,0.00,0.00,330.00
"USC00500288","1958-02-13",30.92,1.04,0.00,0.00,330.00
"USC00500288","1958-02-14",33.98,10.04,0.00,0.00,330.00
"USC00500288","1958-02-15",28.94,-4.00,0.00,0.00,330.00
"USC00500288","1958-02-16",28.04,1.04,0.00,0.00,330.00
"USC00500288","1958-02-17",26.96,-5.98,0.00,0.00,330.00
"USC00500288","1958-02-18",26.96,-9.94,0.00,0.00,330.00
"USC00500288","1958-02-19",19.04,-11.02,0.00,0.00,330.00
"USC00500288","1958-02-20",30.02,12.02,0.00,0.00,330.00
"USC00500288","1958-02-21",32.00,17.06,0.00,0.00,330.00
"USC00500288","1958-02-22",37.94,21.92,0.00,0.00,330.00
"USC00500288","1958-02-23",32.00,12.02,0.00,0.00,330.00
"USC00500288","1958-02-24",35.96,10.94,0.00,0.00,330.00
"USC00500288","1958-02-25",26.06,-2.92,0.00,0.00,305.00
"USC00500288","1958-02-26",30.02,19.94,28.00,25.00,330.00
"USC00500288","1958-02-27",35.06,3.02,0.00,0.00,330.00
"USC00500288","1958-02-28",41.00,15.98,0.00,0.00,305.00
"USC00500288","1958-03-01",46.04,26.06,0.00,0.00,305.00
"USC00500288","1958-03-02",48.02,33.08,3.00,0.00,152.00
"USC00500288","1958-03-03",41.00,26.06,0.00,0.00,102.00
"USC00500288","1958-03-04",37.04,6.98,0.00,0.00,76.00
"USC00500288","1958-03-05",26.06,6.98,3.00,3.00,76.00
"USC00500288","1958-03-06",32.00,19.94,10.00,25.00,102.00
"USC00500288","1958-03-07",35.96,1.04,0.00,0.00,76.00
"USC00500288","1958-03-08",30.02,-7.06,0.00,0.00,76.00
"USC00500288","1958-03-09",19.04,-2.02,0.00,3.00,76.00
"USC00500288","1958-03-10",30.92,19.04,0.00,0.00,51.00
"USC00500288","1958-03-11",39.02,19.04,0.00,0.00,51.00
"USC00500288","1958-03-12",39.02,28.94,3.00,0.00,25.00
"USC00500288","1958-03-13",44.96,24.98,0.00,0.00,25.00
"USC00500288","1958-03-14",42.08,28.94,0.00,0.00,25.00
"USC00500288","1958-03-15",44.06,15.98,0.00,0.00,25.00
"USC00500288","1958-03-16",39.92,10.04,0.00,0.00,25.00
"USC00500288","1958-03-17",39.02,8.06,0.00,0.00,25.00
"USC00500288","1958-03-18",39.92,8.96,0.00,0.00,25.00
"USC00500288","1958-03-19",39.92,15.98,0.00,0.00,25.00
"USC00500288","1958-03-20",39.02,17.06,0.00,0.00,25.00
"USC00500288","1958-03-21",37.94,8.96,0.00,0.00,25.00
"USC00500288","1958-03-22",37.04,15.98,0.00,0.00,25.00
"USC00500288","1958-03-23",33.98,19.04,0.00,0.00,25.00
"USC00500288","1958-03-24",35.06,19.04,15.00,18.00,51.00
"USC00500288","1958-03-25",37.94,1.94,,25.00,51.00
"USC00500288","1958-03-26",39.02,8.06,0.00,0.00,25.00
"USC00500288","1958-03-27",39.92,12.92,0.00,0.00,0.00
"USC00500288","1958-03-28",42.08,10.04,0.00,0.00,0.00
"USC00500288","1958-03-29",37.04,15.98,0.00,0.00,0.00
"USC00500288","1958-03-30",37.04,24.08,0.00,0.00,0.00
"USC00500288","1958-03-31",42.08,26.96,0.00,0.00,0.00
"USC00500288","1958-04-01",46.94,33.98,0.00,0.00,0.00
"USC00500288","1958-04-02",55.94,26.96,0.00,0.00,0.00
"USC00500288","1958-04-03",51.98,19.94,0.00,0.00,0.00
"USC00500288","1958-04-04",55.04,19.94,0.00,0.00,0.00
"USC00500288","1958-04-05",51.98,24.98,0.00,0.00,0.00
"USC00500288","1958-04-06",51.08,24.98,0.00,0.00,0.00
"USC00500288","1958-04-07",42.98,26.96,0.00,0.00,0.00
"USC00500288","1958-04-08",41.00,30.92,3.00,0.00,0.00
"USC00500288","1958-04-09",51.08,17.06,0.00,0.00,0.00
"USC00500288","1958-04-10",51.98,19.94,0.00,0.00,0.00
"USC00500288","1958-04-11",48.92,21.92,0.00,0.00,0.00
"USC00500288","1958-04-12",51.08,24.08,0.00,0.00,0.00
"USC00500288","1958-04-13",50.00,21.92,0.00,0.00,0.00
"USC00500288","1958-04-14",50.00,21.92,0.00,0.00,0.00
"USC00500288","1958-04-15",51.08,17.96,0.00,0.00,0.00
"USC00500288","1958-04-16",51.98,26.06,20.00,0.00,0.00
"USC00500288","1958-04-17",51.98,17.96,0.00,0.00,0.00
"USC00500288","1958-04-18",46.04,17.06,0.00,0.00,0.00
"USC00500288","1958-04-19",42.98,28.04,8.00,10.00,0.00
"USC00500288","1958-04-20",44.96,23.00,0.00,0.00,0.00
"USC00500288","1958-04-21",42.98,17.06,0.00,0.00,0.00
"USC00500288","1958-04-22",48.02,15.98,0.00,0.00,0.00
"USC00500288","1958-04-23",37.94,28.94,38.00,13.00,0.00
"USC00500288","1958-04-24",46.04,30.92,0.00,0.00,0.00
"USC00500288","1958-04-25",53.96,24.98,0.00,0.00,0.00
"USC00500288","1958-04-26",60.08,26.06,0.00,0.00,0.00
"USC00500288","1958-04-27",60.98,24.98,0.00,0.00,0.00
"USC00500288","1958-04-28",64.04,26.06,0.00,0.00,0.00
"USC00500288","1958-04-29",59.00,28.94,0.00,0.00,0.00
"USC00500288","1958-04-30",51.98,35.96,3.00,0.00,0.00
"USC00500288","1958-05-01",57.92,35.96,0.00,0.00,0.00
"USC00500288","1958-05-02",55.94,37.04,18.00,0.00,0.00
"USC00500288","1958-05-03",53.96,35.96,0.00,0.00,0.00
"USC00500288","1958-05-04",55.04,32.00,0.00,0.00,0.00
"USC00500288","1958-05-05",53.96,37.04,0.00,0.00,0.00
"USC00500288","1958-05-06",,35.96,0.00,0.00,0.00
"USC00500288","1958-05-07",44.06,26.06,38.00,0.00,0.00
"USC00500288","1958-05-08",51.08,32.00,3.00,0.00,0.00
"USC00500288","1958-05-09",48.92,30.02,28.00,0.00,0.00
"USC00500288","1958-05-10",55.04,33.08,23.00,0.00,0.00
"USC00500288","1958-05-11",57.02,24.98,5.00,0.00,0.00
"USC00500288","1958-05-12",55.04,30.02,13.00,0.00,0.00
"USC00500288","1958-05-13",60.08,23.00,3.00,0.00,0.00
"USC00500288","1958-05-14",53.96,26.06,0.00,0.00,0.00
"USC00500288","1958-05-15",53.06,37.04,53.00,0.00,0.00
"USC00500288","1958-05-16",51.98,33.08,30.00,0.00,0.00
"USC00500288","1958-05-17",51.08,33.98,41.00,0.00,0.00
"USC00500288","1958-05-18",57.92,32.00,10.00,0.00,0.00
"USC00500288","1958-05-19",,28.04,0.00,0.00,0.00
"USC00500288","1958-05-20",,,0.00,0.00,0.00
"USC00500288","1958-05-21",62.06,26.06,0.00,0.00,0.00
"USC00500288","1958-05-22",64.04,42.08,0.00,0.00,0.00
"USC00500288","1958-05-23",60.98,37.94,0.00,0.00,0.00
"USC00500288","1958-05-24",55.94,30.92,5.00,0.00,0.00
"USC00500288","1958-05-25",51.98,41.00,23.00,0.00,0.00
"USC00500288","1958-05-26",53.06,37.94,10.00,0.00,0.00
"USC00500288","1958-05-27",53.96,37.94,0.00,0.00,0.00
"USC00500288","1958-05-28",64.04,28.04,0.00,0.00,0.00
"USC00500288","1958-05-29",64.04,37.94,0.00,0.00,0.00
"USC00500288","1958-05-30",73.94,44.06,5.00,0.00,0.00
"USC00500288","1958-05-31",71.06,37.04,0.00,0.00,0.00
"USC00500288","1958-06-01",66.02,32.00,0.00,0.00,0.00
"USC00500288","1958-06-02",62.96,33.98,0.00,0.00,0.00
"USC00500288","1958-06-03",62.06,33.08,0.00,0.00,0.00
"USC00500288","1958-06-04",62.96,35.96,0.00,0.00,0.00